Time,TemperatureF,DewpointF,PressureIn,WindDirection,WindDirectionDegrees,WindSpeedMPH,WindSpeedGustMPH,Humidity,HourlyPrecipIn,Conditions,Clouds,dailyrainin,SoftwareType,DateUTC
2013-03-23 00:36:00,-999.0,-99.9,29.38,North,-999,-999.0,-999.0,-999,0.00,,,0.00,weatherlink.com 1.10,2013-03-23 00:36:00,
2013-03-23 00:51:00,-999.0,-99.9,29.38,North,-999,-999.0,-999.0,-999,0.00,,,0.00,weatherlink.com 1.10,2013-03-23 00:51:00,
2013-03-23 01:06:00,-999.0,-99.9,29.38,North,-999,-999.0,-999.0,-999,0.00,,,0.00,weatherlink.com 1.10,2013-03-23 01:06:00,
2013-03-23 01:21:00,-999.0,-99.9,29.39,North,-999,-999.0,-999.0,-999,0.00,,,0.00,weatherlink.com 1.10,2013-03-23 01:21:00,
2013-03-23 01:36:00,-999.0,-99.9,29.39,North,-999,-999.0,-999.0,-999,0.00,,,0.00,weatherlink.com 1.10,2013-03-23 01:36:00,
2013-03-23 01:51:00,-999.0,-99.9,29.39,North,-999,-999.0,-999.0,-999,0.00,,,0.00,weatherlink.com 1.10,2013-03-23 01:51:00,
2013-03-23 02:07:00,-999.0,-99.9,29.39,North,-999,-999.0,-999.0,-999,0.00,,,0.00,weatherlink.com 1.10,2013-03-23 02:07:00,
2013-03-23 02:21:00,-999.0,-99.9,29.39,North,-999,-999.0,-999.0,-999,0.00,,,0.00,weatherlink.com 1.10,2013-03-23 02:21:00,
2013-03-23 02:37:00,-999.0,-99.9,29.39,North,-999,-999.0,-999.0,-999,0.00,,,0.00,weatherlink.com 1.10,2013-03-23 02:37:00,
2013-03-23 02:52:00,-999.0,-99.9,29.39,North,-999,-999.0,-999.0,-999,0.00,,,0.00,weatherlink.com 1.10,2013-03-23 02:52:00,
2013-03-23 03:07:00,-999.0,-99.9,29.39,North,-999,-999.0,-999.0,-999,0.00,,,0.00,weatherlink.com 1.10,2013-03-23 03:07:00,
2013-03-23 03:22:00,-999.0,-99.9,29.40,North,-999,-999.0,-999.0,-999,0.00,,,0.00,weatherlink.com 1.10,2013-03-23 03:22:00,
2013-03-23 03:37:00,-999.0,-99.9,29.40,North,-999,-999.0,-999.0,-999,0.00,,,0.00,weatherlink.com 1.10,2013-03-23 03:37:00,
2013-03-23 03:52:00,-999.0,-99.9,29.40,North,-999,-999.0,-999.0,-999,0.00,,,0.00,weatherlink.com 1.10,2013-03-23 03:52:00,
2013-03-23 04:07:00,-999.0,-99.9,29.40,North,-999,-999.0,-999.0,-999,0.00,,,0.00,weatherlink.com 1.10,2013-03-23 04:07:00,
2013-03-23 04:22:00,-999.0,-99.9,29.40,North,-999,-999.0,-999.0,-999,0.00,,,0.00,weatherlink.com 1.10,2013-03-23 04:22:00,
2013-03-23 04:37:00,-999.0,-99.9,29.41,North,-999,-999.0,-999.0,-999,0.00,,,0.00,weatherlink.com 1.10,2013-03-23 04:37:00,
2013-03-23 04:52:00,-999.0,-99.9,29.41,North,-999,-999.0,-999.0,-999,0.00,,,0.00,weatherlink.com 1.10,2013-03-23 04:52:00,
2013-03-23 05:07:00,-999.0,-99.9,29.41,North,-999,-999.0,-999.0,-999,0.00,,,0.00,weatherlink.com 1.10,2013-03-23 05:07:00,
2013-03-23 05:22:00,-999.0,-99.9,29.42,North,-999,-999.0,-999.0,-999,0.00,,,0.00,weatherlink.com 1.10,2013-03-23 05:22:00,
2013-03-23 05:37:00,-999.0,-99.9,29.42,North,-999,-999.0,-999.0,-999,0.00,,,0.00,weatherlink.com 1.10,2013-03-23 05:37:00,
2013-03-23 05:53:00,-999.0,-99.9,29.42,North,-999,-999.0,-999.0,-999,0.00,,,0.00,weatherlink.com 1.10,2013-03-23 05:53:00,
2013-03-23 06:08:00,-999.0,-99.9,29.43,North,-999,-999.0,-999.0,-999,0.00,,,0.00,weatherlink.com 1.10,2013-03-23 06:08:00,
2013-03-23 06:23:00,-999.0,-99.9,29.43,North,-999,-999.0,-999.0,-999,0.00,,,0.00,weatherlink.com 1.10,2013-03-23 06:23:00,
2013-03-23 06:38:00,-999.0,-99.9,29.43,North,-999,-999.0,-999.0,-999,0.00,,,0.00,weatherlink.com 1.10,2013-03-23 06:38:00,
2013-03-23 06:53:00,-999.0,-99.9,29.43,North,-999,-999.0,-999.0,-999,0.00,,,0.00,weatherlink.com 1.10,2013-03-23 06:53:00,
2013-03-23 07:08:00,-999.0,-99.9,29.44,North,-999,-999.0,-999.0,-999,0.00,,,0.00,weatherlink.com 1.10,2013-03-23 07:08:00,
2013-03-23 07:23:00,-999.0,-99.9,29.45,North,-999,-999.0,-999.0,-999,0.00,,,0.00,weatherlink.com 1.10,2013-03-23 07:23:00,
2013-03-23 07:38:00,-999.0,-99.9,29.44,North,-999,-999.0,-999.0,-999,0.00,,,0.00,weatherlink.com 1.10,2013-03-23 07:38:00,
2013-03-23 07:53:00,-999.0,-99.9,29.45,North,-999,-999.0,-999.0,-999,0.00,,,0.00,weatherlink.com 1.10,2013-03-23 07:53:00,
2013-03-23 08:08:00,-999.0,-99.9,29.45,North,-999,-999.0,-999.0,-999,0.00,,,0.00,weatherlink.com 1.10,2013-03-23 08:08:00,
2013-03-23 08:23:00,36.8,36.0,29.45,SSE,150,10.0,18.0,96,0.00,,,0.00,weatherlink.com 1.10,2013-03-23 08:23:00,
2013-03-23 08:38:00,36.7,35.0,29.45,South,169,13.0,23.0,95,0.00,,,0.00,weatherlink.com 1.10,2013-03-23 08:38:00,
2013-03-23 08:53:00,36.7,35.0,29.46,SE,142,10.0,25.0,95,0.00,,,0.00,weatherlink.com 1.10,2013-03-23 08:53:00,
2013-03-23 09:08:00,36.6,36.0,29.46,SE,142,16.0,21.0,96,0.00,,,0.00,weatherlink.com 1.10,2013-03-23 09:08:00,
2013-03-23 09:23:00,36.6,36.0,29.47,SE,139,16.0,19.0,96,0.00,,,0.00,weatherlink.com 1.10,2013-03-23 09:23:00,
2013-03-23 09:38:00,36.7,36.0,29.47,SSE,166,8.0,20.0,96,0.00,,,0.00,weatherlink.com 1.10,2013-03-23 09:38:00,
2013-03-23 09:53:00,36.6,36.0,29.48,SSE,148,13.0,20.0,96,0.00,,,0.00,weatherlink.com 1.10,2013-03-23 09:53:00,
2013-03-23 10:08:00,36.8,36.0,29.48,SSE,150,7.0,21.0,96,0.00,,,0.00,weatherlink.com 1.10,2013-03-23 10:08:00,
2013-03-23 10:23:00,36.9,36.0,29.48,SE,135,9.0,20.0,96,0.00,,,0.00,weatherlink.com 1.10,2013-03-23 10:23:00,
2013-03-23 10:38:00,36.7,36.0,29.49,SE,135,7.0,21.0,96,0.00,,,0.00,weatherlink.com 1.10,2013-03-23 10:38:00,
2013-03-23 10:54:00,36.8,36.0,29.49,SSE,156,12.0,19.0,95,0.00,,,0.00,weatherlink.com 1.10,2013-03-23 10:54:00,
2013-03-23 11:09:00,37.1,36.0,29.49,SSE,165,12.0,18.0,95,0.00,,,0.00,weatherlink.com 1.10,2013-03-23 11:09:00,
2013-03-23 11:24:00,37.5,36.0,29.50,SE,139,8.0,20.0,93,0.00,,,0.00,weatherlink.com 1.10,2013-03-23 11:24:00,
2013-03-23 11:39:00,37.6,36.0,29.50,SSE,163,16.0,19.0,92,0.00,,,0.00,weatherlink.com 1.10,2013-03-23 11:39:00,
2013-03-23 11:54:00,37.7,35.0,29.50,SE,125,12.0,20.0,91,0.00,,,0.00,weatherlink.com 1.10,2013-03-23 11:54:00,
2013-03-23 12:09:00,37.8,35.0,29.50,SSE,148,11.0,20.0,90,0.00,,,0.00,weatherlink.com 1.10,2013-03-23 12:09:00,
2013-03-23 12:24:00,37.7,35.0,29.50,SSE,154,10.0,20.0,90,0.00,,,0.00,weatherlink.com 1.10,2013-03-23 12:24:00,
2013-03-23 12:39:00,37.8,36.0,29.51,SSE,154,13.0,19.0,91,0.00,,,0.00,weatherlink.com 1.10,2013-03-23 12:39:00,
2013-03-23 12:54:00,37.7,35.0,29.51,SE,140,12.0,20.0,90,0.00,,,0.00,weatherlink.com 1.10,2013-03-23 12:54:00,
2013-03-23 13:09:00,37.8,35.0,29.51,SSE,150,11.0,20.0,89,0.00,,,0.00,weatherlink.com 1.10,2013-03-23 13:09:00,
2013-03-23 13:24:00,38.0,35.0,29.51,SSE,148,11.0,20.0,89,0.00,,,0.00,weatherlink.com 1.10,2013-03-23 13:24:00,
2013-03-23 13:39:00,38.0,35.0,29.51,SSE,153,7.0,19.0,89,0.00,,,0.00,weatherlink.com 1.10,2013-03-23 13:39:00,
2013-03-23 13:54:00,38.0,35.0,29.51,SSE,148,9.0,20.0,89,0.00,,,0.00,weatherlink.com 1.10,2013-03-23 13:54:00,
2013-03-23 14:09:00,38.1,35.0,29.51,SE,136,9.0,14.0,89,0.00,,,0.00,weatherlink.com 1.10,2013-03-23 14:09:00,
2013-03-23 14:24:00,38.1,35.0,29.51,SSE,150,9.0,18.0,88,0.00,,,0.00,weatherlink.com 1.10,2013-03-23 14:24:00,
2013-03-23 14:39:00,38.0,35.0,29.51,SSE,160,14.0,17.0,88,0.00,,,0.00,weatherlink.com 1.10,2013-03-23 14:39:00,
2013-03-23 14:54:00,38.0,35.0,29.51,SSE,148,12.0,19.0,87,0.00,,,0.00,weatherlink.com 1.10,2013-03-23 14:54:00,
2013-03-23 15:09:00,38.0,34.0,29.52,SE,145,11.0,23.0,86,0.00,,,0.00,weatherlink.com 1.10,2013-03-23 15:09:00,
2013-03-23 15:24:00,37.9,34.0,29.52,SE,142,11.0,17.0,87,0.00,,,0.00,weatherlink.com 1.10,2013-03-23 15:24:00,
2013-03-23 15:39:00,37.9,34.0,29.52,SE,145,9.0,20.0,86,0.00,,,0.00,weatherlink.com 1.10,2013-03-23 15:39:00,
2013-03-23 15:54:00,37.8,34.0,29.52,SSE,154,9.0,15.0,86,0.00,,,0.00,weatherlink.com 1.10,2013-03-23 15:54:00,
2013-03-23 16:09:00,37.9,34.0,29.53,SE,125,9.0,15.0,86,0.00,,,0.00,weatherlink.com 1.10,2013-03-23 16:09:00,
2013-03-23 16:24:00,37.9,34.0,29.53,SE,125,11.0,18.0,86,0.00,,,0.00,weatherlink.com 1.10,2013-03-23 16:24:00,
2013-03-23 16:39:00,37.9,34.0,29.53,SE,143,9.0,17.0,86,0.00,,,0.00,weatherlink.com 1.10,2013-03-23 16:39:00,
2013-03-23 16:54:00,37.7,34.0,29.53,SSE,153,10.0,19.0,86,0.00,,,0.00,weatherlink.com 1.10,2013-03-23 16:54:00,
2013-03-23 17:09:00,37.6,34.0,29.53,SE,133,8.0,16.0,86,0.00,,,0.00,weatherlink.com 1.10,2013-03-23 17:09:00,
2013-03-23 17:24:00,37.6,34.0,29.54,SE,125,9.0,16.0,86,0.00,,,0.00,weatherlink.com 1.10,2013-03-23 17:24:00,
2013-03-23 17:39:00,37.6,34.0,29.54,SE,142,9.0,16.0,86,0.00,,,0.00,weatherlink.com 1.10,2013-03-23 17:39:00,
2013-03-23 17:54:00,37.6,34.0,29.54,SE,138,8.0,18.0,85,0.00,,,0.00,weatherlink.com 1.10,2013-03-23 17:54:00,
2013-03-23 18:09:00,37.6,34.0,29.55,SE,139,7.0,17.0,85,0.00,,,0.00,weatherlink.com 1.10,2013-03-23 18:09:00,
2013-03-23 18:24:00,37.5,34.0,29.56,SE,139,7.0,14.0,86,0.00,,,0.00,weatherlink.com 1.10,2013-03-23 18:24:00,
2013-03-23 18:39:00,37.4,34.0,29.56,SE,145,6.0,14.0,86,0.00,,,0.00,weatherlink.com 1.10,2013-03-23 18:39:00,
2013-03-23 18:54:00,36.3,33.0,29.56,SE,141,10.0,18.0,88,0.00,,,0.00,weatherlink.com 1.10,2013-03-23 18:54:00,
2013-03-23 19:09:00,-999.0,-99.9,29.57,North,-999,-999.0,-999.0,-999,0.00,,,0.00,weatherlink.com 1.10,2013-03-23 19:09:00,
2013-03-23 19:24:00,-999.0,-99.9,29.57,North,-999,-999.0,-999.0,-999,0.00,,,0.00,weatherlink.com 1.10,2013-03-23 19:24:00,
2013-03-23 19:39:00,-999.0,-99.9,29.57,North,-999,-999.0,-999.0,-999,0.00,,,0.00,weatherlink.com 1.10,2013-03-23 19:39:00,
2013-03-23 19:55:00,-999.0,-99.9,29.58,North,-999,-999.0,-999.0,-999,0.00,,,0.00,weatherlink.com 1.10,2013-03-23 19:55:00,
2013-03-23 20:10:00,-999.0,-99.9,29.57,North,-999,-999.0,-999.0,-999,0.00,,,0.00,weatherlink.com 1.10,2013-03-23 20:10:00,
2013-03-23 20:25:00,-999.0,-99.9,29.58,North,-999,-999.0,-999.0,-999,0.00,,,0.00,weatherlink.com 1.10,2013-03-23 20:25:00,
2013-03-23 20:40:00,-999.0,-99.9,29.58,North,-999,-999.0,-999.0,-999,0.00,,,0.00,weatherlink.com 1.10,2013-03-23 20:40:00,
2013-03-23 20:55:00,-999.0,-99.9,29.59,North,-999,-999.0,-999.0,-999,0.00,,,0.00,weatherlink.com 1.10,2013-03-23 20:55:00,
2013-03-23 21:10:00,-999.0,-99.9,29.59,North,-999,-999.0,-999.0,-999,0.00,,,0.00,weatherlink.com 1.10,2013-03-23 21:10:00,
2013-03-23 21:25:00,-999.0,-99.9,29.59,North,-999,-999.0,-999.0,-999,0.00,,,0.00,weatherlink.com 1.10,2013-03-23 21:25:00,
2013-03-23 21:40:00,-999.0,-99.9,29.59,North,-999,-999.0,-999.0,-999,0.00,,,0.00,weatherlink.com 1.10,2013-03-23 21:40:00,
2013-03-23 21:55:00,-999.0,-99.9,29.59,North,-999,-999.0,-999.0,-999,0.00,,,0.00,weatherlink.com 1.10,2013-03-23 21:55:00,
2013-03-23 22:10:00,-999.0,-99.9,29.60,North,-999,-999.0,-999.0,-999,0.00,,,0.00,weatherlink.com 1.10,2013-03-23 22:10:00,
2013-03-23 22:25:00,-999.0,-99.9,29.60,North,-999,-999.0,-999.0,-999,0.00,,,0.00,weatherlink.com 1.10,2013-03-23 22:25:00,
2013-03-23 22:40:00,-999.0,-99.9,29.60,North,-999,-999.0,-999.0,-999,0.00,,,0.00,weatherlink.com 1.10,2013-03-23 22:40:00,
2013-03-23 22:55:00,-999.0,-99.9,29.60,North,-999,-999.0,-999.0,-999,0.00,,,0.00,weatherlink.com 1.10,2013-03-23 22:55:00,
2013-03-23 23:10:00,-999.0,-99.9,29.60,North,-999,-999.0,-999.0,-999,0.00,,,0.00,weatherlink.com 1.10,2013-03-23 23:10:00,
2013-03-23 23:26:00,-999.0,-99.9,29.61,North,-999,-999.0,-999.0,-999,0.00,,,0.00,weatherlink.com 1.10,2013-03-23 23:26:00,
2013-03-23 23:41:00,-999.0,-99.9,29.61,North,-999,-999.0,-999.0,-999,0.00,,,0.00,weatherlink.com 1.10,2013-03-23 23:41:00,
2013-03-23 23:56:00,-999.0,-99.9,29.61,North,-999,-999.0,-999.0,-999,0.00,,,0.00,weatherlink.com 1.10,2013-03-23 23:56:00,